ATLAS 5 CENTAUR DEB, 44666

Orbit data source: Space-Track

ATLAS 5 CENTAUR DEB, 44666 is space debris in HEO originally from a launch on Wed, 17 Oct 2018 UTC launched from the Air Force Eastern Test Range (AFETR). Debris objects in space refer to the collection of defunct objects orbiting the Earth. Examples of debris include non-operational satellites, rocket bodies, and fragments generated from explosions, collisions, or faulty payload assembly.

Loading next visibility...
Identifier
44666, 2018-079AC
Orbit
HEO
Country
Flag of USUS
Related business
Flag of USUnited Launch Alliance/Lockheed Martin (US)
Manufacturer
ULA Decatur
Mission
Spacecraft
Bus & Motor
Unknown
Mass
Unknown
Launch date (UTC)
2018-10-17 (7 years ago)
Launch vehicle
Unknown
Launch site
Air Force Eastern Test Range (AFETR)
Object type
Payload
Rocket body
Debris
Shape & HBR
Unknown shape, 1.1 m
Radar Cross Section
RCS unknown

Expand to show TLE details & history
Last TLE update: 2 days ago

TLE from 2 days ago
0 ATLAS 5 CENTAUR DEB
1 44666U 18079AC  25346.59542927 -.00000071  00000-0  00000-0 0  9993
2 44666  12.8417  47.2032 4452852 301.9101  22.3083  1.90662980 45462
Epoch: 2025-12-12T14:17Z
TLE epoch observation values (Epoch: 2025-12-12T14:17:25.088Z)
Latitude
0.00013°
Longitude
111.26658°
Altitude
11,470.821 km
Speed
5.491 km/s
True Right ascension
03h 08m 37s
True Declination
0° 00' 00"
Sunlit
Object was in daylight at epoch
Visualization orbit readout
Latitude
Unknown
Longitude
Unknown
Altitude
Unknown
Speed
Unknown
Apparent Right ascension
Unknown
Apparent Declination
Unknown
Sunlit
N/A
Visualization observer readout
Local Sidereal Time
14:44:36
Azimuth
Unknown
Elevation
Unknown
Doppler factor
Unknown
Orbital elements
Apogee altitude
33,329.81 km
Perigee altitude
8,862.167 km
Semi-major axis
27,474.126 km
Eccentricity
0.44529
Inclination
12.8417°
RAAN
47.2032°
Arg. of periapsis
301.9101°
True anomaly
58.16332°
Mean anomaly
22.3083°
Eccentric anomaly
38.02411°
Mean motion
0.4766 °/min
Orbital period
755.34 mins
BSTAR
0
Loading maneuver chart data...
Computing Atmospheric mass density...

Documentation

Showing up to 5 results
|